Lapse_Rate
5.0 5.1 4.9 4.8 4.8 4.7 4.6 4.9 4.1 4.4 4.7 4.9 4.6 4.7 4.7 4.6 4.5 4.9 5.0 5.3 5.2 5.4 5.5 5.4 5.3 5.3 5.3 5.5 5.1 5.1 5.3 5.6 5.9 6.2 6.1 6.3 6.3 6.5
5.6 5.6 5.4 5.3 5.2 4.8 5.0 4.7 4.4 4.3 4.4 4.4 4.5 4.4 4.4 4.6 4.7 4.9 4.9 5.3 5.4 5.4 5.5 5.2 5.2 5.3 5.2 5.4 5.1 5.1 5.4 5.4 5.8 6.0 6.0 6.2 6.2 6.3
5.8 5.8 5.4 5.3 5.1 4.6 4.5 4.5 4.5 4.6 4.4 4.9 4.6 4.6 4.7 4.8 5.0 5.0 5.1 5.3 5.4 5.4 5.3 5.4 5.4 5.3 5.1 5.2 5.1 4.8 5.1 5.7 5.7 6.0 6.1 6.2 6.3 6.5
5.8 5.3 5.1 5.1 4.5 4.6 4.6 4.4 4.4 4.6 4.5 4.6 5.1 5.1 5.0 5.0 4.9 5.1 5.1 5.3 5.4 5.3 5.2 5.2 5.4 5.3 5.2 5.0 5.2 5.2 5.0 5.5 5.7 5.8 5.9 6.2 6.3 6.5
4.9 4.8 4.9 4.6 4.7 4.8 4.8 4.7 4.6 4.6 4.7 4.9 5.0 5.0 5.0 5.1 5.0 5.2 5.4 5.4 5.4 5.3 5.3 5.5 5.3 5.2 5.3 5.3 5.1 5.2 5.0 5.2 5.4 5.7 5.8 6.0 6.2 6.2
4.6 4.8 4.8 4.9 5.0 5.1 5.1 4.9 4.8 4.9 5.0 5.1 5.3 5.4 5.2 5.5 5.2 5.2 5.3 5.4 5.4 5.4 5.4 5.5 5.5 5.4 5.5 5.5 5.2 5.2 4.6 4.7 5.4 5.5 5.7 6.1 6.0 5.9
4.7 4.9 4.8 4.9 5.2 5.4 5.1 4.9 5.0 5.1 5.3 5.3 5.0 5.0 5.3 5.3 5.3 5.2 5.2 5.4 5.4 5.2 5.5 5.4 5.2 5.1 5.4 5.2 5.0 5.1 4.6 4.7 5.1 5.7 5.7 6.0 5.8 5.7
5.1 5.1 5.3 5.5 4.9 4.9 4.8 4.9 5.0 5.2 5.3 5.2 5.3 5.4 5.4 5.5 5.5 5.3 5.1 5.2 5.0 5.1 5.2 4.8 5.0 5.4 5.4 5.1 5.3 5.2 4.7 5.0 5.4 5.7 5.5 5.9 5.7 5.5
5.2 5.0 4.9 5.1 4.9 5.0 5.2 5.2 5.0 4.9 5.0 5.0 4.7 4.8 4.6 5.0 5.0 4.8 4.7 4.8 4.8 5.0 5.1 4.8 5.0 4.9 5.0 5.1 5.2 4.9 4.6 5.0 5.3 5.5 5.6 5.7 5.6 5.5
5.3 5.4 5.5 5.3 5.1 5.0 5.1 5.1 5.0 5.1 5.0 4.9 4.9 4.9 4.9 4.9 4.8 4.8 4.9 4.9 4.5 4.8 4.8 4.7 4.7 4.7 4.8 4.8 4.8 5.0 4.8 5.0 4.7 5.0 5.2 5.8 5.8 5.8
5.2 5.3 5.2 5.3 5.1 5.2 4.9 5.0 5.0 4.9 4.8 4.8 4.8 4.9 5.0 4.8 4.8 4.8 4.8 4.7 4.7 4.6 4.0 4.0 4.6 5.1 5.3 5.1 4.8 4.8 4.7 5.0 5.1 5.0 5.5 5.6 5.8 5.4
5.1 5.2 5.1 4.9 5.0 5.1 5.2 5.1 5.2 5.1 4.8 4.7 4.6 4.5 4.4 4.6 4.7 4.7 4.4 4.5 4.5 4.5 4.1 4.2 4.9 5.4 5.5 5.5 5.6 5.4 5.1 5.0 5.0 5.3 5.4 5.5 5.6 5.5
5.0 5.0 5.0 5.2 5.0 5.2 5.3 5.2 5.1 4.9 4.8 4.5 4.6 4.6 4.4 4.4 4.1 3.8 3.8 3.9 4.1 4.5 4.7 5.1 5.8 6.0 5.8 5.7 5.8 5.4 5.4 5.2 5.1 5.1 5.4 5.5 5.5 5.4
5.4 5.4 5.3 5.3 5.2 5.0 4.9 4.8 4.7 4.6 4.6 4.5 4.5 4.4 4.2 3.9 3.6 3.8 3.9 3.9 4.4 4.8 5.8 6.9 6.4 6.1 6.0 6.0 5.7 5.7 5.6 5.5 5.3 5.4 5.6 5.5 5.4 5.2
5.4 5.2 5.1 5.1 5.1 4.9 4.8 4.7 4.6 4.5 4.5 4.5 4.4 4.3 4.2 3.8 3.6 3.9 3.8 4.5 4.6 6.2 6.8 7.0 6.8 6.6 6.1 6.1 6.0 6.1 6.1 6.1 5.9 5.7 5.8 5.7 5.6 5.4
5.0 4.9 4.7 4.6 4.5 4.4 4.4 4.4 4.2 4.2 4.1 4.0 3.9 4.0 4.1 3.9 3.2 3.2 3.8 3.9 5.5 6.3 6.6 6.7 6.8 6.5 6.3 6.2 6.2 6.3 6.3 6.3 5.9 5.6 5.5 5.6 5.3 5.9
4.4 4.4 4.5 4.4 4.4 4.2 4.0 3.9 3.9 3.7 3.7 3.7 3.8 3.7 3.5 2.9 2.5 3.0 3.4 4.3 5.8 6.7 6.8 6.6 6.8 6.6 6.5 6.2 6.2 6.4 6.4 6.4 6.2 5.9 5.3 5.6 5.7 6.0
4.5 4.5 4.4 4.3 4.2 3.9 3.7 3.5 3.5 3.4 3.3 3.2 3.0 2.9 2.6 2.4 2.3 2.5 3.3 4.6 5.9 6.6 6.8 6.8 6.8 6.5 6.2 6.0 6.1 6.2 6.3 6.3 6.0 5.5 5.6 6.0 5.9 5.8
4.5 4.4 4.1 3.9 3.7 3.5 3.4 3.2 3.1 3.0 3.0 2.9 2.8 2.6 2.5 2.4 2.4 2.9 4.1 5.6 6.5 7.0 7.2 6.9 6.7 6.1 5.8 5.8 5.8 6.1 6.2 6.2 5.8 5.8 6.1 6.1 6.1 6.3
4.0 4.0 3.9 3.7 3.6 3.4 3.1 3.0 2.8 2.7 2.7 2.7 2.6 2.6 2.4 2.5 2.9 3.8 5.0 6.0 6.8 7.1 6.8 6.7 6.5 5.9 5.7 5.6 5.6 5.8 6.2 6.2 5.7 6.1 6.2 6.0 6.2 6.4
4.1 4.0 3.8 3.6 3.4 3.2 3.0 2.8 2.8 2.7 2.7 2.6 2.6 2.6 2.6 2.9 3.7 4.9 5.9 6.5 7.0 7.1 7.0 6.8 6.2 5.7 5.4 5.3 5.3 5.6 6.3 6.0 5.8 6.0 6.0 6.0 6.3 6.4
4.1 4.0 3.8 3.5 3.2 3.1 3.1 3.0 2.9 2.6 2.5 2.5 2.6 2.9 3.3 3.9 4.7 5.6 6.4 6.8 6.9 6.9 6.7 6.2 5.8 5.6 5.5 5.4 5.3 5.5 6.0 5.6 5.2 5.6 5.9 6.1 6.3 6.6
4.0 3.8 3.7 3.6 3.4 3.3 3.1 2.9 2.8 2.6 2.5 2.6 3.1 3.6 4.1 4.9 5.4 6.0 6.7 6.8 6.5 6.6 6.5 6.1 5.8 5.6 5.6 5.5 5.5 5.4 5.8 5.1 5.0 5.0 5.6 6.1 6.3 6.2
Wind_Speed
13 14 8 6 3 3 3 4 5 4 3 3 4 5 6 6 9 12 12 17 21 18 17 16 13 13 10 8 7 7 11 12 12 12 15 17 18 20
11 13 10 5 4 3 2 2 2 1 4 2 5 4 5 5 12 15 13 18 22 20 20 17 15 16 13 12 11 9 11 12 12 13 15 18 18 20
14 14 14 8 5 4 4 3 3 3 6 8 3 4 5 5 5 10 15 15 15 23 22 20 18 17 16 15 13 10 10 11 13 13 16 18 18 19
4 5 8 5 7 5 4 4 5 5 6 15 6 5 6 6 5 6 6 12 12 16 23 20 20 19 18 15 14 14 11 9 11 12 14 16 18 19
6 6 7 7 7 5 6 7 7 6 7 6 5 4 5 3 3 3 4 6 11 15 21 19 19 17 15 15 14 13 9 7 10 13 15 16 20 18
5 5 6 7 8 8 7 8 7 6 6 7 8 8 5 3 2 3 4 5 6 8 13 13 13 14 14 15 13 11 7 8 9 11 14 15 19 19
5 5 5 7 10 9 7 8 8 8 8 9 9 8 3 3 5 3 6 2 5 4 5 4 4 9 11 14 9 10 7 8 8 10 12 14 17 15
2 1 2 2 4 4 6 7 4 5 8 5 6 7 6 3 4 4 4 3 2 6 5 4 8 4 5 10 11 10 7 8 8 8 11 13 16 10
4 4 4 3 4 4 4 4 4 5 3 3 5 5 4 5 4 4 4 4 3 3 3 4 4 5 7 12 15 11 8 8 6 6 9 13 14 5
6 5 5 5 6 6 5 5 4 3 4 3 3 6 5 3 5 5 5 3 3 1 2 2 2 3 3 8 13 12 10 3 1 5 9 12 11 3
5 5 5 5 8 8 4 4 5 4 3 5 7 9 10 9 8 5 4 4 1 3 2 2 2 2 3 3 6 11 10 9 3 3 6 8 6 10
5 6 6 5 7 6 3 4 5 3 4 4 4 4 5 5 13 7 7 7 3 1 5 4 3 3 2 1 3 4 7 7 5 2 2 1 5 10
4 4 4 14 12 10 8 4 4 4 4 4 4 3 4 3 4 6 6 6 4 3 5 4 3 2 2 2 1 3 5 3 2 1 3 2 8 14
4 3 4 13 11 12 8 10 11 10 3 4 3 3 4 4 2 2 3 4 6 2 10 4 3 3 3 3 2 1 0 0 2 1 2 3 10 10
5 9 13 13 11 9 12 14 12 4 4 3 4 5 4 3 3 3 3 5 6 7 5 1 3 5 3 2 3 3 3 2 0 0 1 2 1 6
8 7 9 10 9 10 8 8 3 3 4 5 5 4 2 2 3 3 3 2 2 2 2 4 2 4 3 1 2 4 2 3 3 2 1 1 2 5
8 3 3 3 4 4 4 4 4 4 5 4 4 3 3 3 4 3 3 3 4 4 3 1 3 5 3 4 2 4 4 2 3 3 2 1 1 2
4 3 4 4 4 5 5 6 5 6 4 4 5 5 5 5 6 4 4 6 7 5 6 3 4 2 1 1 1 5 2 3 3 4 2 2 1 0
2 2 4 6 6 6 5 5 6 6 5 6 5 5 6 6 6 6 6 6 6 5 5 6 6 4 5 4 1 6 3 2 5 4 1 2 3 2
2 3 2 5 6 6 5 7 8 7 6 6 6 6 6 6 6 7 7 8 7 5 5 6 6 7 5 4 3 1 6 4 3 5 3 2 4 8
2 3 3 6 7 6 6 6 7 7 7 7 7 7 7 6 7 7 7 13 11 7 7 8 7 10 4 6 4 3 1 3 5 6 4 3 2 2
4 4 6 6 6 7 6 6 7 8 6 6 7 8 6 7 7 8 7 7 8 8 7 5 8 6 4 3 4 4 3 1 9 12 8 5 4 4
5 6 7 7 8 7 7 6 6 7 7 8 7 7 8 7 7 7 7 8 7 7 7 6 7 5 5 4 5 5 7 6 3 5 3 9 5 4
Wind_Direction
209 206 203 218 199 180 186 176 218 249 253 258 239 224 193 205 199 194 205 217 221 219 231 238 229 210 215 213 220 251 275 279 286 299 307 311 311 310
203 203 200 177 166 149 132 91 112 157 274 240 244 209 187 212 208 206 207 220 218 213 221 228 220 205 213 219 227 236 263 279 293 306 309 312 314 315
202 196 199 180 201 184 178 162 188 190 259 278 239 205 187 199 222 214 203 218 220 217 219 216 211 214 217 223 231 237 255 280 295 307 312 313 315 317
152 185 176 162 194 185 179 197 219 217 236 259 220 218 217 226 226 210 210 221 221 224 219 217 213 218 220 221 227 228 238 268 288 303 313 309 312 318
197 196 201 205 226 225 223 231 236 224 221 244 244 203 201 204 205 208 204 217 211 219 220 217 218 214 218 229 215 229 246 272 294 307 311 317 317 323
194 193 193 196 214 207 206 209 206 206 212 230 240 234 211 187 192 203 231 216 214 196 206 200 201 213 220 215 217 224 244 276 291 306 315 322 321 326
190 200 205 204 209 211 206 211 203 220 230 237 244 243 191 191 216 192 242 195 215 182 192 199 196 194 205 218 213 225 241 270 292 301 318 322 329 323
155 160 19 345 345 354 358 352 342 259 247 250 263 260 254 201 186 202 201 167 241 185 192 188 164 187 202 197 214 222 218 256 272 298 326 324 327 327
81 67 49 36 17 358 357 24 28 27 345 310 281 264 260 218 157 183 186 187 209 167 153 170 171 184 182 177 171 190 215 254 274 328 318 329 325 316
62 50 39 23 22 9 353 341 316 319 305 296 281 294 288 236 197 179 177 134 41 357 168 169 179 188 170 186 181 182 203 223 269 321 342 324 309 186
53 65 59 38 24 18 353 329 306 293 246 287 281 276 261 218 177 128 146 147 164 223 222 124 191 155 198 172 187 208 198 197 168 8 330 316 236 145
21 31 72 58 34 13 359 290 298 281 271 283 286 298 272 229 186 198 169 187 148 178 204 179 161 170 189 27 143 222 234 206 178 164 10 275 205 124
17 16 32 15 354 344 332 296 273 282 290 264 263 273 276 266 233 224 200 185 177 226 192 146 155 162 90 132 225 199 201 208 173 211 310 265 168 146
4 4 350 347 347 342 335 320 313 302 249 248 250 254 249 245 256 323 350 344 332 282 172 165 144 149 140 139 175 189 185 247 117 149 325 332 135 142
353 341 335 333 331 339 337 337 337 307 267 255 251 251 228 207 156 128 90 84 78 12 356 293 148 140 140 152 149 154 141 203 202 136 313 348 31 132
349 337 335 338 330 319 324 321 283 286 270 261 256 246 171 183 190 160 164 158 134 178 41 336 45 120 121 124 124 151 168 160 147 199 142 61 64 118
335 328 339 341 338 327 329 323 314 298 289 276 271 257 235 214 216 188 185 168 197 168 161 178 102 87 94 154 149 161 154 132 169 162 109 101 43 97
353 342 344 334 325 329 325 316 299 290 274 266 263 255 246 230 228 205 200 207 211 190 172 159 151 116 97 280 187 160 143 137 157 172 133 113 87 255
7 328 313 311 309 307 305 302 307 305 301 294 274 261 249 246 235 214 211 210 214 199 183 160 173 163 173 180 125 200 151 137 144 162 133 118 155 197
239 246 262 295 298 299 300 304 305 302 298 299 289 279 267 249 240 229 214 213 210 189 173 175 181 190 192 168 138 152 208 148 156 153 134 82 85 106
236 245 258 290 293 290 291 291 288 294 294 298 292 289 281 262 246 242 224 215 204 193 196 191 184 153 115 106 109 132 146 92 158 160 142 115 122 122
277 263 291 286 287 288 288 293 298 300 294 291 288 290 278 268 252 244 221 211 208 202 204 169 156 153 155 137 136 144 150 110 89 122 126 149 164 170
298 297 293 291 292 288 292 291 293 297 297 297 290 290 288 275 258 241 226 209 204 190 168 162 164 162 165 160 136 144 161 149 142 122 69 72 57 137